CAPE
0 0 0 0 0 0 0 0 0 0 0 0 0 0 0 0 0 222 889 1081 1356 1671 1476 958 1231 1707 1544 1296 1258 1228 1083 893 693 579 729 594 416 433 665 671 610 553 467 378 299 142 39 55 0
0 0 0 0 0 0 0 0 0 0 0 0 0 0 0 1 21 12 1186 1047 1128 1390 1690 1332 1136 1613 1737 1482 1285 1238 1224 1124 854 686 778 580 533 790 683 628 559 514 439 315 190 66 12 12 0
0 0 0 0 0 0 0 0 0 0 0 0 0 0 0 2 16 54 946 964 1065 1330 1573 1536 1065 1455 1814 1630 1299 1283 1232 1170 939 782 881 503 827 757 641 538 470 349 297 169 69 20 7 0 0
0 0 0 0 0 0 0 0 0 0 0 0 0 0 26 118 18 638 537 688 798 1225 1516 1337 1127 1147 1706 1760 1429 1215 1282 1173 1065 887 909 888 909 720 460 412 247 115 114 66 19 6 0 0 0
0 0 0 0 0 0 0 0 0 0 0 0 0 0 14 309 210 260 405 682 775 1141 1521 1295 1193 1050 1327 1493 1364 881 762 1073 710 1169 1187 965 861 581 360 297 153 54 23 52 10 1 0 0 0
0 0 0 0 0 0 0 0 0 0 0 0 0 1 8 426 91 464 560 542 798 925 1518 1576 1077 965 794 982 754 379 427 659 608 1137 1144 984 728 415 279 128 77 57 4 9 2 0 0 0 0
0 0 0 0 0 0 0 0 0 0 0 0 4 0 4 350 327 431 535 903 1034 1116 1225 1308 1383 908 416 412 315 66 6 48 445 1019 986 788 488 248 130 80 66 49 5 1 0 0 0 0 0
0 0 0 0 0 0 0 0 0 0 0 0 0 0 55 640 744 576 647 901 653 931 880 759 1049 769 335 197 83 80 3 26 84 719 692 513 360 281 179 63 39 7 5 0 0 0 0 0 0
0 0 0 0 0 0 0 0 0 0 0 0 0 0 220 798 368 472 592 818 679 765 831 656 665 375 269 98 17 5 2 0 5 554 439 371 332 346 149 64 14 0 0 0 0 0 0 0 0
0 0 0 0 0 0 0 0 0 0 0 0 0 0 149 120 199 220 250 720 898 510 597 762 380 115 62 12 66 125 25 0 0 286 287 318 417 375 180 72 5 0 0 0 0 0 0 0 0
0 0 0 0 0 0 0 0 0 0 0 0 0 0 36 405 247 262 263 133 738 561 398 384 314 150 64 90 73 47 0 0 85 198 231 360 366 232 184 29 0 0 0 0 0 0 0 0 0
0 0 0 0 0 0 0 0 0 0 0 0 0 0 0 80 156 223 83 62 377 221 109 150 101 138 70 44 36 29 10 0 38 157 174 248 185 66 147 0 0 0 0 0 0 0 0 0 0
0 0 0 0 0 0 0 0 0 0 0 0 0 0 0 36 137 103 100 84 95 31 0 29 12 9 10 39 13 12 1 6 27 103 107 118 94 107 82 0 0 0 0 0 0 0 0 0 0
0 0 0 0 0 0 0 0 0 0 0 0 0 0 6 37 134 39 99 2 83 24 0 0 12 5 9 6 2 5 0 21 24 13 39 36 67 113 103 4 0 2 0 0 0 0 0 0 0
0 0 0 0 0 0 0 0 0 0 0 0 0 0 0 136 128 51 1 10 83 2 2 0 1 3 1 11 14 8 3 0 1 0 21 21 32 109 95 79 7 19 0 0 0 12 0 0 0
0 0 0 0 0 0 0 0 0 0 0 0 0 0 0 156 177 59 0 7 37 50 15 0 0 1 2 4 2 2 3 1 0 0 4 10 20 78 88 64 78 92 18 76 3 5 0 0 0
0 0 0 0 0 0 0 0 0 0 0 0 0 4 15 67 275 108 0 0 29 15 11 1 2 1 0 0 2 2 2 2 1 1 0 0 8 33 74 52 87 119 86 98 35 5 0 0 1
0 0 0 0 0 0 0 0 0 0 0 0 0 0 33 6 106 129 0 0 19 4 11 0 2 3 4 0 0 3 5 14 3 2 0 3 3 38 55 36 61 66 11 60 33 16 25 3 2
0 0 0 0 0 0 0 0 0 0 0 0 0 0 0 26 51 85 0 0 0 9 1 3 2 1 0 0 2 1 1 1 2 0 0 0 8 28 34 39 40 44 51 25 31 35 3 6 0
0 0 0 0 0 0 0 0 0 0 0 0 1 2 0 13 64 92 0 0 0 12 3 4 4 0 0 0 0 3 1 1 0 1 0 0 7 12 7 22 52 55 48 18 14 5 0 0 0
0 0 0 0 0 0 0 0 0 0 0 0 0 0 2 18 40 78 0 0 0 23 0 2 3 0 0 1 1 7 2 2 1 0 3 0 3 5 10 55 41 52 92 36 27 33 1 2 0
0 0 0 0 0 0 0 0 0 0 0 0 0 0 0 0 22 98 6 0 0 2 0 0 1 1 0 0 2 0 2 1 0 1 0 0 1 16 14 37 44 44 119 91 67 52 89 69 13
0 0 0 0 0 0 0 0 0 0 0 0 0 0 0 0 0 105 49 0 0 1 2 0 0 1 1 2 2 0 1 1 0 1 0 0 0 15 27 66 59 137 30 116 100 92 107 152 80
0 0 0 0 0 0 0 0 0 0 0 0 0 0 0 0 0 4 131 5 0 3 4 0 0 1 3 2 1 0 0 0 0 0 0 0 0 1 20 45 55 72 53 72 67 40 36 82 77
0 0 0 1 0 0 0 0 0 0 0 0 0 0 0 0 0 0 100 71 0 3 14 0 0 3 2 4 1 1 0 0 0 0 0 0 0 0 0 17 40 24 21 68 67 42 26 46 52
0 0 0 1 0 0 0 0 0 0 0 0 0 0 0 0 0 0 36 126 7 0 10 4 0 1 4 2 3 0 0 0 0 0 0 0 0 0 0 0 7 19 27 17 53 39 17 3 5
0 0 0 0 0 0 0 0 13 0 0 0 0 0 0 0 0 0 6 168 51 0 0 0 0 0 2 4 2 4 0 0 0 0 0 0 0 0 0 0 2 4 25 32 10 9 0 0 5
0 0 0 0 0 0 23 2 5 5 0 0 0 2 2 0 1 0 0 198 164 0 0 9 0 0 0 2 3 3 6 5 1 0 0 0 0 0 0 0 8 5 12 28 23 17 1 1 5
0 0 0 0 0 0 0 1 52 0 3 8 0 0 0 0 0 13 24 207 282 97 7 10 0 0 0 0 1 3 5 4 6 1 0 0 0 0 0 0 6 16 33 33 11 3 0 1 1
0 0 0 0 0 0 0 9 0 0 0 0 0 0 3 6 0 6 63 170 345 255 76 17 0 0 0 0 0 0 3 5 8 4 4 2 0 0 0 0 3 0 0 8 10 9 12 11 2
CIN
0 0 0 0 0 0 0 0 0 0 0 0 0 0 0 0 0 -8 -35 -74 -60 -14 -119 -170 -120 -45 -14 -15 -4 -6 -33 -67 -91 -115 -42 -48 -69 -27 -0 -1 -0 -0 -0 0 -1 -10 -44 -26 0
0 0 0 0 0 0 0 -3 0 0 0 0 0 0 0 -1 -16 -5 -15 -75 -75 -11 -48 -98 -124 -38 -3 -8 -5 -2 -1 -10 -44 -79 -45 -35 -54 -3 -1 -2 -1 -0 0 -9 -21 -29 -25 -39 0
0 0 0 0 0 0 0 0 0 0 0 0 0 0 0 -2 -50 -38 -63 -86 -76 -39 -3 -33 -104 -46 -2 -8 -18 -7 -3 -5 -28 -45 -19 -47 -9 -5 -2 -2 -1 -1 -2 -32 -68 -122 -172 0 0
0 0 0 0 0 0 0 0 0 0 0 0 0 0 -11 -50 -31 -47 -64 -94 -80 -51 -3 -52 -75 -78 -14 -2 -4 -12 -2 -1 -4 -29 -10 -8 -1 -3 -6 -3 -10 -42 -24 -64 -149 -32 0 0 0
0 0 0 0 0 0 0 0 0 0 0 0 0 0 -5 -52 -61 -83 -70 -78 -75 -24 -5 -31 -63 -55 -38 -13 -5 -8 -14 -1 -27 -0 -1 -4 -4 -18 -13 -2 -1 -43 -86 -93 -169 0 0 0 0
0 0 0 0 0 0 -3 0 0 0 0 0 -0 -0 -4 -34 -56 -76 -99 -87 -74 -56 -17 -9 -42 -36 -30 -21 -26 -14 -2 -3 -14 -1 -0 -0 -8 -16 -47 -32 -16 -29 -3 -2 -0 0 0 0 0
0 0 0 0 0 0 0 0 0 0 0 0 -13 0 -7 -40 -70 -101 -86 -69 -49 -62 -44 -3 -10 -46 -133 -140 -137 -216 -124 0 -4 -1 -1 -5 -21 -28 -33 -43 -33 -38 -6 -0 0 0 0 0 0
0 0 0 0 0 0 -4 0 0 0 0 0 0 0 -8 -35 -85 -118 -72 -94 -110 -64 -68 -67 -10 -65 -123 -202 -239 -200 -154 -120 -153 -1 -23 -34 -46 -20 -24 -68 -41 -6 -5 0 0 0 0 0 0
0 0 0 0 0 0 0 0 0 0 0 0 0 0 -20 -70 -86 -88 -64 -105 -99 -63 -52 -55 -27 -93 -71 -153 -255 -73 -132 0 0 -5 -33 -24 -10 -14 -66 -29 -22 0 0 0 0 0 0 0 0
0 0 0 0 0 0 0 0 0 0 0 0 0 -2 -40 -49 -61 -57 -44 -14 -22 -71 -38 -3 -27 -103 -147 -79 -128 -42 -98 0 0 -4 -13 -10 -1 -5 -31 -15 -20 0 0 0 0 0 0 0 0
0 0 0 0 0 0 0 0 0 0 0 0 0 0 -6 -29 -56 -67 -80 -76 -17 -16 -9 -19 -0 -10 -62 -59 -56 -44 0 0 -0 -1 -11 -1 -2 -10 -1 -30 0 0 0 0 0 0 0 0 0
0 0 0 0 0 0 0 0 0 0 0 0 0 0 0 -44 -49 -53 -91 -59 -54 -47 -69 -47 -9 -3 -24 -76 -51 -8 -27 -3 -10 -1 -7 -10 -8 -11 -3 0 0 0 0 0 0 0 0 0 0
0 0 0 0 0 0 0 0 0 0 0 0 0 0 0 -69 -50 -81 -130 -156 -141 -137 0 -116 -4 -0 -39 -70 -84 -15 -16 -16 -15 -3 -7 -18 -14 -2 -8 0 0 0 0 0 0 0 0 0 0
0 0 0 0 0 0 0 0 0 0 0 0 0 0 -50 -70 -61 -87 -144 -86 -190 -198 0 0 -1 -2 -1 -3 -1 -1 -0 -18 -9 -10 -17 -27 -17 -5 -10 -19 0 -64 0 0 0 0 0 0 0
0 0 0 0 0 0 0 0 0 0 0 0 0 0 0 -93 -82 -85 -10 -218 -212 -1 -2 -2 -3 -1 -0 -1 -0 0 -6 0 -3 -5 -21 -21 -19 -5 -14 -18 -50 -32 0 0 0 -5 0 0 0
0 0 0 0 0 0 0 0 0 0 0 0 0 0 0 -76 -104 -107 0 -212 -255 -194 -196 -1 -0 0 0 0 0 0 -1 -2 0 0 -19 -29 -15 -18 -27 -30 -19 -10 -27 -21 -11 -9 0 -1 0
0 0 0 0 0 0 0 0 0 0 0 0 0 -2 -6 -68 -75 -108 0 0 -226 -90 -106 -0 -0 0 0 0 -8 0 -22 -10 0 0 0 0 -46 -34 -15 -15 -28 -14 -20 -16 -12 -13 0 -1 -1
0 0 0 0 0 0 0 0 0 0 0 0 0 0 -6 -12 -48 -93 0 0 -218 -240 -62 0 -0 -3 -1 -5 -0 -1 -2 -0 0 0 0 -19 -22 -24 -31 -13 -20 -16 -35 -9 -23 -17 -12 -4 -4
0 0 0 0 0 0 0 0 0 0 0 0 0 0 0 -6 -52 -85 0 0 -0 -245 -1 0 -1 -3 0 0 0 0 -1 0 0 -0 0 0 -13 -21 -38 -20 -24 -33 -47 -66 -54 -18 -31 -39 0
0 0 0 0 0 0 0 0 0 0 0 0 -2 -11 -1 -3 -27 -102 0 0 0 -201 -9 -10 -1 0 0 0 -0 -0 0 0 0 -1 0 -1 -28 -36 -31 -32 -34 -36 -50 -58 -31 -46 -50 0 0
0 0 0 0 0 0 0 0 0 0 0 0 0 0 -1 -10 -31 -99 0 0 0 -221 0 -5 -0 0 0 -1 -2 0 0 0 0 0 -6 0 -11 -47 -38 -20 -21 -28 -27 -27 -28 -27 -16 -31 0
0 0 0 0 0 0 0 0 0 0 0 0 0 0 0 0 -13 -60 -57 0 0 -116 0 0 -11 0 0 -0 0 0 0 0 0 -0 -1 0 -18 -42 -25 -12 -20 -36 -30 -35 -13 -19 -25 -21 -57
0 0 0 0 0 0 0 0 0 0 0 0 0 0 0 0 0 -31 -168 0 0 -131 -86 0 0 -0 0 0 0 0 0 0 -0 -0 0 0 0 -8 -22 -4 -12 -28 -39 -17 -9 -24 -16 -11 -20
0 0 0 0 0 0 0 0 0 0 0 0 0 0 0 0 0 -13 -86 -65 0 -352 -270 0 0 0 -0 -1 -0 0 0 0 -0 0 0 0 0 -16 -54 -7 -24 -43 -34 -19 -24 -26 -10 -27 -23
0 0 0 -3 0 0 0 0 0 0 0 0 0 0 0 0 0 0 -53 -144 0 -168 -398 0 0 -1 -1 0 0 -1 -0 0 0 0 0 0 0 0 0 -38 -48 -34 -40 -37 -37 -30 -51 -8 -16
0 0 0 -1 -0 0 0 0 0 0 0 0 0 0 0 0 0 0 -37 -98 -140 0 -364 -436 0 -0 -7 -5 -0 0 0 0 0 0 0 0 0 0 0 0 -51 -46 -55 -57 -50 -24 -47 -28 -48
0 0 0 0 0 0 0 0 -3 0 0 0 0 0 0 0 0 0 -23 -84 -160 0 0 0 0 0 -1 -1 -1 0 -1 0 -0 0 0 0 0 0 0 -3 -48 -60 -63 -81 -57 -40 -1 0 -56
0 0 0 0 0 0 -6 -16 -1 -4 0 0 0 -1 -4 0 -6 -8 0 -81 -126 0 0 -361 0 0 0 -1 -3 -1 -0 -0 -1 0 0 0 0 0 0 -1 -10 -28 -30 -8 -30 -49 -34 -55 -60
-0 0 0 0 0 0 0 -7 -18 0 -2 -6 -2 0 -1 -0 0 -15 -33 -59 -108 -169 -170 -333 0 0 0 0 -1 -0 0 -1 -1 -1 0 0 0 0 0 0 -2 -4 -2 -2 -24 -51 -5 -58 -39
0 0 0 -0 -1 0 0 -5 0 0 0 0 -2 -0 -11 -3 0 -5 -15 -24 -75 -108 -179 -289 0 0 0 -31 0 -0 -0 -1 -0 -1 -0 -1 0 0 0 0 -1 0 0 -4 -9 -25 -35 -31 -47
Wind_Speed
10 11 10 12 16 13 18 15 11 18 16 15 19 18 23 23 24 19 13 15 18 14 12 8 5 6 7 5 5 6 6 6 5 4 4 4 5 6 6 7 8 8 9 10 9 11 13 13 14
7 7 10 17 14 18 21 11 16 14 16 17 18 16 14 15 18 16 16 19 18 15 10 7 3 1 6 7 6 6 7 6 6 7 6 5 6 4 6 7 7 7 8 9 11 12 13 12 13
10 11 15 14 12 12 14 20 17 16 17 18 16 14 15 14 18 18 18 21 18 16 10 5 2 2 6 8 9 8 9 8 9 8 7 7 6 6 5 5 6 6 4 9 10 10 10 12 15
10 11 14 17 17 14 24 18 19 16 14 11 16 19 16 14 16 17 19 20 17 16 13 4 2 4 6 9 11 11 11 11 11 11 10 9 8 7 6 5 5 5 5 6 8 9 11 13 13
9 16 17 18 19 11 18 14 19 15 16 17 20 18 20 13 14 17 18 19 18 14 13 6 2 3 8 10 11 13 20 14 15 13 12 11 10 10 7 6 5 4 6 6 8 9 12 14 12
15 14 18 20 20 13 12 14 15 14 17 16 8 13 18 12 14 15 17 16 15 14 13 9 3 3 6 10 15 14 32 18 18 15 12 11 10 8 9 7 7 6 5 5 8 10 12 11 9
20 20 20 23 26 33 21 10 13 15 16 18 15 17 19 10 15 16 16 16 16 16 14 10 6 5 8 10 14 22 23 24 19 17 14 12 10 8 8 7 7 7 6 6 8 12 10 9 8
20 25 28 28 28 31 26 11 14 18 20 15 18 17 16 12 14 15 13 16 17 15 13 10 9 8 8 8 10 20 31 31 34 21 16 13 11 11 8 8 8 8 7 6 8 11 8 8 6
20 29 30 24 24 25 12 15 14 15 16 20 12 8 11 12 14 14 14 15 15 13 12 10 9 9 10 9 12 21 24 38 37 19 17 14 10 10 12 8 9 8 8 7 6 8 8 7 6
28 31 28 29 32 31 25 11 18 14 14 6 4 6 8 11 13 16 17 15 14 16 13 8 8 9 10 11 13 14 17 29 48 22 19 14 11 8 8 9 11 9 8 7 6 6 8 6 3
30 35 37 36 29 28 27 26 17 22 20 16 18 15 12 9 14 14 15 14 16 16 14 10 7 7 7 9 11 15 13 17 33 19 18 14 11 10 8 9 10 10 8 6 5 7 5 5 2
38 43 43 43 41 33 23 31 27 29 19 16 12 11 11 11 13 11 13 15 16 17 11 9 5 5 7 10 11 15 12 13 17 23 17 15 12 10 10 9 11 11 9 7 7 6 3 5 2
44 44 45 44 41 38 29 21 31 35 25 11 9 9 9 9 9 10 16 16 17 15 11 11 9 7 8 9 12 9 2 14 30 22 17 13 12 11 11 10 11 11 9 9 8 6 4 5 1
42 44 46 43 44 35 26 27 28 36 30 14 7 7 5 5 8 10 12 11 14 13 12 13 10 8 9 10 11 12 4 5 23 17 17 12 11 10 12 11 11 11 11 10 7 8 5 4 2
43 47 43 46 42 44 24 37 31 36 33 25 3 5 1 5 8 9 11 11 12 12 13 11 9 9 9 9 9 7 4 11 17 13 13 15 11 9 12 12 12 13 11 11 8 9 6 5 1
43 39 45 43 42 37 28 41 37 35 10 6 5 1 2 3 6 7 10 10 11 11 11 11 10 9 9 9 6 6 5 3 8 14 15 16 14 11 11 13 14 12 13 15 13 8 7 7 4
36 41 38 42 40 38 15 39 33 33 21 7 2 4 2 2 4 5 8 8 10 10 11 11 10 9 9 9 6 5 2 3 6 14 16 16 18 12 15 12 13 13 14 14 12 10 10 7 5
34 35 39 39 37 32 36 21 28 31 14 15 7 9 3 3 1 3 6 7 9 10 10 10 9 9 9 8 7 6 6 2 9 12 15 17 18 16 13 17 12 11 10 9 10 12 13 8 7
37 39 40 39 35 31 20 34 32 28 26 9 5 1 1 4 2 3 5 6 8 8 8 9 9 8 8 6 5 5 5 3 7 9 15 15 15 17 18 16 14 11 14 11 12 13 13 11 11
40 41 41 38 32 24 29 31 32 34 30 28 4 2 3 2 2 3 3 5 7 8 8 8 8 7 6 6 4 3 2 4 8 12 13 13 14 15 16 14 13 10 13 14 12 13 14 14 13
41 43 40 39 34 32 28 35 38 38 35 24 21 9 1 5 6 5 3 4 7 9 9 9 9 9 9 10 11 5 1 4 8 10 13 11 14 14 17 13 13 11 11 14 15 12 16 16 13
45 40 43 41 38 38 33 36 32 28 21 23 16 8 2 5 4 8 6 6 8 10 9 9 9 10 11 16 14 17 11 13 15 13 14 11 13 16 17 16 15 21 20 12 13 13 13 10 9
42 34 38 38 38 38 41 35 31 29 31 16 8 7 8 7 3 8 7 8 8 9 8 9 10 11 13 17 16 15 16 14 15 14 9 16 14 25 15 20 19 20 28 24 13 11 12 11 9
35 32 40 39 35 41 39 38 35 32 28 21 10 13 21 7 4 4 8 8 8 8 8 9 12 13 15 16 19 19 19 16 16 18 13 13 15 21 25 29 22 21 19 16 15 13 13 13 12
34 31 30 29 39 36 33 33 35 28 20 12 10 14 14 2 2 1 7 10 10 9 8 10 12 13 15 16 18 18 19 18 20 24 25 18 19 21 25 15 15 19 19 15 14 15 15 21 17
32 29 25 21 27 31 28 28 38 30 27 15 17 18 12 6 3 1 5 9 10 10 9 10 10 11 13 16 17 18 18 16 16 19 24 25 26 20 22 20 17 19 17 18 17 16 18 26 35
22 31 45 37 32 30 24 21 21 13 12 13 15 12 12 9 4 4 3 7 9 10 10 10 9 10 13 13 15 17 18 19 17 16 18 22 26 28 24 19 23 26 29 28 28 26 27 21 21
36 29 33 27 25 24 19 12 20 20 16 11 11 13 17 19 20 4 3 6 7 8 8 9 9 10 10 12 14 16 18 17 16 16 17 19 23 27 28 28 25 27 26 26 23 20 22 24 21
33 39 30 30 27 20 19 17 11 12 7 8 10 15 17 16 18 8 4 4 5 5 5 6 7 9 10 9 11 13 14 15 16 14 16 17 19 23 25 26 22 22 25 24 23 23 21 22 22
35 38 33 31 26 34 30 17 12 11 10 11 14 15 17 18 17 17 9 3 4 4 5 5 5 5 7 9 8 10 12 14 15 14 15 17 16 19 22 23 21 21 21 22 24 23 21 21 22
Wind_Direction
356 2 15 1 348 349 336 331 353 346 350 1 337 342 328 330 330 328 8 358 351 358 15 21 60 120 141 165 222 234 220 202 179 157 155 130 114 105 99 107 108 106 95 90 83 75 73 75 76
3 10 0 343 333 335 332 9 351 349 353 354 340 341 345 343 351 353 354 341 346 348 2 1 11 132 158 168 181 209 218 199 191 170 161 148 130 135 119 116 116 111 102 93 84 78 78 80 79
337 341 335 335 319 323 330 351 342 347 345 338 345 350 344 348 350 344 344 334 337 340 341 355 15 235 182 180 179 184 200 199 177 178 169 156 148 143 141 131 123 124 135 96 91 88 87 84 84
338 331 327 316 313 315 316 322 343 344 348 359 343 336 358 359 348 351 345 342 343 340 335 348 315 224 203 193 190 201 198 196 187 169 168 159 150 151 153 156 136 144 140 111 103 98 94 91 87
309 313 302 305 309 296 318 328 327 339 333 338 337 339 341 5 4 357 351 349 345 351 346 339 267 230 218 214 222 238 240 197 189 191 168 156 148 136 150 166 172 157 142 126 108 102 97 96 92
293 298 297 301 307 309 309 326 334 333 326 335 345 349 347 2 358 358 358 4 357 353 351 346 312 238 232 254 266 259 209 209 191 171 168 163 160 163 151 172 191 178 162 140 110 101 102 100 92
277 284 285 295 303 298 320 331 327 325 327 328 357 346 345 17 357 356 4 7 359 349 348 340 325 278 278 270 263 270 276 241 196 181 172 155 153 167 177 166 179 178 164 137 113 104 104 100 92
274 282 284 288 295 297 305 329 321 312 315 343 339 335 356 11 360 4 14 4 359 353 347 341 327 305 293 273 277 279 272 268 230 174 174 169 153 135 144 167 171 177 164 147 118 107 107 102 88
271 274 277 283 291 302 309 313 315 312 319 324 347 356 2 6 2 359 0 3 2 360 353 351 330 312 307 306 302 293 274 257 247 177 170 174 164 144 129 151 165 173 161 151 136 114 117 103 94
263 268 272 280 279 298 302 320 314 310 321 341 347 357 5 2 358 347 349 350 358 347 349 352 342 325 316 314 313 309 283 254 247 193 167 182 170 169 153 154 154 162 163 164 136 129 117 108 118
263 264 267 267 276 299 290 299 307 299 308 322 341 340 13 12 354 355 360 3 359 358 356 348 333 331 328 333 329 306 284 260 230 198 174 185 175 166 169 169 164 175 174 179 174 130 130 125 133
263 259 257 255 268 284 300 287 290 285 309 325 331 351 349 353 353 3 9 8 8 1 14 16 29 8 10 359 346 310 272 249 217 208 181 177 183 177 181 180 186 190 201 181 176 161 170 134 116
258 257 253 255 263 272 291 294 284 272 299 322 337 352 356 355 359 16 6 16 14 24 52 97 81 46 41 40 21 27 33 253 222 203 209 178 180 176 173 177 184 194 196 207 178 206 184 150 277
257 255 250 255 252 272 287 287 285 270 285 216 338 350 2 2 5 14 22 35 36 49 67 108 93 50 43 48 43 46 68 213 197 196 213 193 178 174 179 180 173 188 197 211 200 236 198 205 279
255 260 259 249 252 243 288 272 277 271 277 228 249 355 77 6 1 13 21 40 50 63 77 72 66 39 36 33 39 45 51 230 222 208 219 209 197 192 195 192 182 209 204 217 218 230 225 241 230
257 260 256 247 249 247 273 242 267 272 268 203 321 168 116 34 5 22 21 46 65 78 77 78 73 70 49 17 11 50 89 268 209 202 214 209 227 201 202 194 206 205 212 225 236 218 228 238 237
257 254 258 251 246 252 261 238 268 274 288 284 175 174 130 79 5 21 27 59 77 94 94 97 93 70 47 34 23 7 88 170 191 199 211 219 228 209 221 210 213 203 217 223 226 229 234 236 240
253 253 250 254 254 259 260 271 276 272 288 293 312 192 171 139 36 31 30 62 88 90 93 89 95 78 65 59 41 15 338 141 155 194 202 215 220 216 211 230 203 211 195 217 222 232 243 240 254
254 255 255 258 253 264 270 260 270 276 276 280 179 327 215 145 35 46 29 59 99 87 88 79 86 70 65 53 41 347 340 94 133 154 179 197 220 215 224 236 233 232 234 233 233 242 241 252 256
249 249 248 257 258 274 261 268 271 270 274 278 254 178 158 131 115 99 39 54 103 94 91 95 89 89 81 71 67 353 76 107 129 132 164 212 214 209 226 232 233 229 237 235 230 243 246 260 262
248 246 247 259 266 266 267 269 264 262 270 279 279 306 1 158 147 141 108 101 111 116 110 99 101 112 105 106 108 83 54 112 144 145 149 190 178 195 225 234 227 213 229 231 235 232 248 256 259
243 248 249 260 263 260 257 268 276 276 279 276 278 272 244 178 153 153 145 132 128 128 107 99 94 114 118 129 125 133 130 144 149 152 145 165 198 193 190 189 182 174 174 190 187 238 246 245 227
244 257 254 262 265 262 254 267 271 274 274 274 224 249 195 180 194 157 156 141 132 124 108 102 102 113 124 137 133 139 147 151 156 162 195 157 164 166 179 180 176 173 175 175 197 224 215 237 228
257 257 251 260 265 256 254 258 265 270 281 282 288 289 286 196 192 153 153 142 135 122 108 114 114 119 131 138 147 152 152 153 162 168 186 181 175 172 169 180 180 178 182 190 188 214 230 229 222
249 245 256 261 252 260 259 262 255 269 290 305 298 298 304 322 173 189 154 148 143 137 123 125 125 126 132 141 150 153 157 156 160 172 174 184 181 182 186 196 207 198 200 207 214 220 241 206 255
244 242 250 263 265 266 261 265 247 264 263 304 294 297 306 303 313 289 172 156 150 146 137 133 130 127 134 144 149 155 158 160 165 170 178 182 185 194 197 200 218 212 231 227 217 235 242 268 267
248 239 235 257 272 270 271 255 265 283 287 299 294 304 306 310 305 302 213 168 156 154 151 145 136 136 143 142 151 158 163 167 168 170 177 184 188 189 191 196 198 199 199 204 206 210 210 219 219
250 249 248 256 262 265 276 255 263 270 277 296 311 311 307 304 299 235 215 180 169 162 155 152 147 147 145 150 155 160 167 166 169 172 177 181 187 190 191 192 195 199 205 205 210 219 219 220 226
253 245 252 255 254 265 270 267 273 284 299 319 331 324 323 329 308 302 268 202 193 189 179 170 160 153 153 151 159 167 169 173 176 174 177 182 185 190 193 196 199 201 205 210 215 219 226 229 236
253 246 250 253 252 255 262 270 294 288 300 320 327 344 340 345 329 309 318 289 215 248 235 205 196 189 174 169 167 175 179 180 182 187 187 185 187 190 196 201 206 209 210 210 212 220 230 232 239